TimeEST,TemperatureF,Dew PointF,Humidity,Sea Level PressureIn,VisibilityMPH,Wind Direction,Wind SpeedMPH,Gust SpeedMPH,PrecipitationIn,Events,Conditions,WindDirDegrees,DateUTC
12:15 AM,9.5,-3.6,55,30.40,10.0,Calm,Calm,-,N/A,,Overcast,0,2013-02-08 05:15:00
12:35 AM,9.7,-3.6,55,30.39,10.0,Calm,Calm,-,N/A,,Overcast,0,2013-02-08 05:35:00
12:55 AM,9.5,-4.9,52,30.38,10.0,Calm,Calm,-,N/A,,Overcast,0,2013-02-08 05:55:00
1:15 AM,10.2,-3.6,54,30.38,10.0,Calm,Calm,-,N/A,,Overcast,0,2013-02-08 06:15:00
1:35 AM,10.4,-3.1,55,30.39,10.0,Calm,Calm,-,N/A,,Overcast,0,2013-02-08 06:35:00
1:55 AM,10.4,-3.5,54,30.38,10.0,Calm,Calm,-,N/A,,Overcast,0,2013-02-08 06:55:00
2:15 AM,10.2,-3.3,55,30.37,10.0,SW,3.5,-,N/A,,Overcast,230,2013-02-08 07:15:00
2:35 AM,10.9,-4.4,50,30.37,10.0,Calm,Calm,-,N/A,,Overcast,0,2013-02-08 07:35:00
2:55 AM,11.3,-8.0,42,30.36,10.0,Calm,Calm,-,N/A,,Overcast,0,2013-02-08 07:55:00
3:15 AM,11.3,-4.9,48,30.35,10.0,Calm,Calm,-,N/A,,Overcast,0,2013-02-08 08:15:00
3:35 AM,11.8,-6.3,44,30.34,10.0,Calm,Calm,-,N/A,,Overcast,0,2013-02-08 08:35:00
3:55 AM,12.2,-5.4,45,30.33,10.0,Calm,Calm,-,N/A,,Overcast,0,2013-02-08 08:55:00
4:35 AM,11.5,-0.0,60,30.32,3.0,Calm,Calm,-,N/A,Snow,Light Snow,0,2013-02-08 09:35:00
4:55 AM,11.1,3.0,70,30.32,2.5,Calm,Calm,-,N/A,Snow,Light Snow,0,2013-02-08 09:55:00
5:15 AM,10.9,4.8,76,30.31,1.2,Calm,Calm,-,N/A,Snow,Light Snow,0,2013-02-08 10:15:00
5:35 AM,11.1,5.9,80,30.31,1.0,Calm,Calm,-,N/A,Snow,Snow,0,2013-02-08 10:35:00
5:55 AM,11.1,6.6,82,30.30,1.0,Calm,Calm,-,N/A,Snow,Snow,0,2013-02-08 10:55:00
6:15 AM,11.3,6.8,82,30.30,0.8,Calm,Calm,-,N/A,Snow,Snow,0,2013-02-08 11:15:00
6:35 AM,11.7,7.3,83,30.28,1.0,Calm,Calm,-,N/A,Snow,Snow,0,2013-02-08 11:35:00
6:55 AM,11.3,7.3,84,30.28,1.5,Calm,Calm,-,N/A,Snow,Light Snow,0,2013-02-08 11:55:00
7:15 AM,12.0,7.7,83,30.28,1.2,Calm,Calm,-,N/A,Snow,Light Snow,0,2013-02-08 12:15:00
7:35 AM,11.8,7.7,83,30.28,0.8,Calm,Calm,-,N/A,Snow,Light Snow,0,2013-02-08 12:35:00
7:55 AM,12.4,7.9,82,30.28,0.8,Calm,Calm,-,N/A,Snow,Light Snow,0,2013-02-08 12:55:00
8:15 AM,12.7,8.2,82,30.28,0.8,Calm,Calm,-,N/A,Snow,Light Snow,0,2013-02-08 13:15:00
8:35 AM,13.1,8.6,82,30.28,0.8,Calm,Calm,-,N/A,Snow,Light Snow,0,2013-02-08 13:35:00
8:55 AM,13.6,9.0,82,30.27,0.8,Calm,Calm,-,N/A,Snow,Light Snow,0,2013-02-08 13:55:00
9:15 AM,14.2,9.5,82,30.26,0.8,Calm,Calm,-,N/A,Snow,Light Snow,0,2013-02-08 14:15:00
9:35 AM,14.7,10.0,82,30.25,0.8,Calm,Calm,-,N/A,Snow,Light Snow,0,2013-02-08 14:35:00
9:55 AM,15.4,10.8,82,30.24,1.0,Calm,Calm,-,N/A,Snow,Light Snow,0,2013-02-08 14:55:00
10:15 AM,16.2,11.5,82,30.24,1.2,Calm,Calm,-,N/A,Snow,Light Snow,0,2013-02-08 15:15:00
10:35 AM,17.2,12.2,81,30.23,1.2,Calm,Calm,-,N/A,Snow,Light Snow,0,2013-02-08 15:35:00
10:55 AM,18.1,13.3,81,30.22,1.2,Calm,Calm,-,N/A,Snow,Light Snow,0,2013-02-08 15:55:00
11:15 AM,19.2,14.0,80,30.21,2.0,South,3.5,-,N/A,Snow,Light Snow,170,2013-02-08 16:15:00
11:35 AM,19.4,14.4,81,30.20,1.5,Calm,Calm,-,N/A,Snow,Light Snow,0,2013-02-08 16:35:00
11:55 AM,20.1,15.4,82,30.20,1.0,Calm,Calm,-,N/A,Snow,Light Snow,0,2013-02-08 16:55:00
12:15 PM,20.3,15.8,83,30.19,0.8,Calm,Calm,-,N/A,Snow,Light Snow,0,2013-02-08 17:15:00
12:35 PM,20.3,16.2,84,30.17,0.8,SSE,3.5,-,N/A,Snow,Light Snow,160,2013-02-08 17:35:00
12:55 PM,21.2,17.1,84,30.15,0.8,Calm,Calm,-,N/A,Snow,Light Snow,0,2013-02-08 17:55:00
1:15 PM,21.7,17.1,82,30.13,2.0,SE,4.6,-,N/A,Snow,Light Snow,140,2013-02-08 18:15:00
1:35 PM,22.1,17.1,81,30.13,1.5,ESE,5.8,-,N/A,Snow,Light Snow,120,2013-02-08 18:35:00
1:55 PM,22.5,17.6,82,30.12,0.8,ESE,6.9,-,N/A,Snow,Snow,120,2013-02-08 18:55:00
2:15 PM,22.1,17.6,83,30.10,1.0,ESE,9.2,-,N/A,Snow,Light Snow,110,2013-02-08 19:15:00
2:35 PM,22.1,17.6,83,30.09,1.5,East,5.8,-,N/A,Snow,Light Snow,90,2013-02-08 19:35:00
2:55 PM,21.6,16.2,80,30.07,1.5,ENE,6.9,-,N/A,Snow,Light Snow,70,2013-02-08 19:55:00
3:15 PM,21.2,15.4,78,30.07,1.5,East,9.2,-,N/A,Snow,Light Snow,100,2013-02-08 20:15:00
3:35 PM,21.2,14.9,77,30.06,1.8,East,6.9,-,N/A,Snow,Light Snow,80,2013-02-08 20:35:00
3:55 PM,21.2,15.6,79,30.05,1.8,East,8.1,-,N/A,Snow,Light Snow,80,2013-02-08 20:55:00
4:15 PM,20.8,15.1,78,30.05,1.5,East,9.2,-,N/A,Snow,Light Snow,80,2013-02-08 21:15:00
4:35 PM,20.7,15.1,79,30.04,1.5,ENE,6.9,-,N/A,Snow,Light Snow,70,2013-02-08 21:35:00
4:55 PM,20.3,15.3,81,30.03,1.5,NNE,5.8,-,N/A,Snow,Light Snow,30,2013-02-08 21:55:00
5:15 PM,19.8,14.9,81,30.03,2.0,NE,4.6,-,N/A,Snow,Light Snow,40,2013-02-08 22:15:00
5:35 PM,19.2,14.9,83,30.03,2.0,ENE,4.6,-,N/A,Snow,Light Snow,60,2013-02-08 22:35:00
5:55 PM,18.9,14.0,81,30.02,3.0,NE,11.5,-,N/A,Snow,Light Snow,40,2013-02-08 22:55:00
6:15 PM,18.3,13.1,80,30.02,3.0,NE,10.4,-,N/A,Snow,Light Snow,50,2013-02-08 23:15:00
6:35 PM,18.0,12.9,81,30.02,2.0,NE,9.2,-,N/A,Snow,Light Snow,40,2013-02-08 23:35:00
6:55 PM,17.6,11.5,77,30.03,4.0,ENE,9.2,18.4,N/A,Snow,Light Snow,70,2013-02-08 23:55:00
7:15 PM,17.2,10.4,75,30.03,5.0,ENE,9.2,-,N/A,Snow,Light Snow,60,2013-02-09 00:15:00
7:35 PM,17.1,9.5,72,30.02,10.0,ENE,9.2,-,N/A,,Overcast,60,2013-02-09 00:35:00
7:55 PM,16.7,8.4,70,30.01,10.0,NE,9.2,-,N/A,,Overcast,40,2013-02-09 00:55:00
8:15 PM,16.5,8.2,70,29.99,10.0,NE,9.2,-,N/A,,Overcast,50,2013-02-09 01:15:00
8:35 PM,16.5,7.7,68,29.98,10.0,NE,8.1,-,N/A,,Overcast,50,2013-02-09 01:35:00
8:55 PM,16.2,7.0,67,29.97,10.0,NE,16.1,20.7,N/A,,Overcast,50,2013-02-09 01:55:00
9:15 PM,16.2,6.6,66,29.96,10.0,ENE,12.7,20.7,N/A,,Overcast,60,2013-02-09 02:15:00
9:35 PM,16.5,7.5,68,29.95,7.0,NE,12.7,24.2,N/A,,Overcast,50,2013-02-09 02:35:00
9:55 PM,16.7,7.7,68,29.95,7.0,NE,13.8,23.0,N/A,Snow,Light Snow,50,2013-02-09 02:55:00
10:15 PM,16.9,7.9,68,29.94,4.0,NE,15.0,27.6,N/A,Snow,Light Snow,50,2013-02-09 03:15:00
10:35 PM,17.1,8.6,69,29.93,4.0,ENE,10.4,16.1,N/A,Snow,Light Snow,60,2013-02-09 03:35:00
10:55 PM,16.3,8.4,71,29.93,4.0,NE,8.1,-,N/A,Snow,Light Snow,40,2013-02-09 03:55:00
11:15 PM,16.2,8.6,72,29.91,7.0,NNE,10.4,-,N/A,Snow,Light Snow,30,2013-02-09 04:15:00
11:35 PM,16.5,9.7,74,29.90,5.0,North,9.2,-,N/A,Snow,Light Snow,350,2013-02-09 04:35:00
11:55 PM,15.4,9.5,77,29.90,3.0,North,12.7,-,N/A,Snow,Light Snow,360,2013-02-09 04:55:00